Eau Claire, WI

11:39 AM CDT on March 25, 2017 (GMT -0500)
Chippewa Valley Regional

Weather History for KEAU - November, 2012

Change the Weather History Date:

Tuesday, November 6, 2012

  Actual Average Record
Temperature  
Mean Temperature 37 °F 38 °F  
Max Temperature 41 °F 47 °F 70 °F (1916)
Min Temperature 33 °F 29 °F -5 °F (1951)
Degree Days  
Heating Degree Days 28 27  
Month to date heating degree days 169 153  
Since 1 July heating degree days 1022 937  
Cooling Degree Days 0 0  
Month to date cooling degree days 0 0  
Year to date cooling degree days 830 579  
Moisture  
Dew Point 34 °F    
Average Humidity 80    
Maximum Humidity 100    
Minimum Humidity 59    
Precipitation  
Precipitation 0.23 in 0.06 in 0.76 in (2000)
Month to date precipitation 0.23 0.38  
Year to date precipitation 21.94 28.52  
Snow  
Snow 0.80 in 0.10 in 0.80 in (2012)
Month to date snowfall 0.8 0.6  
Since 1 July snowfall 0.8 1.0  
Since 1 September snowfall 0.8 1.0  
Snow Depth 0.00 in    
Sea Level Pressure  
Sea Level Pressure 29.83 in    
Wind  
Wind Speed 7 mph (South)    
Max Wind Speed 15 mph    
Max Gust Speed 20 mph    
Visibility 6 miles    
Events Rain , Snow    
T = Trace of Precipitation, MM = Missing Value Source: NWS Daily Summary

Daily Weather History Graph

Daily Weather History Graph

Search for Another Location

Airport or City:

Trip Planner

Search our weather history database for the weather conditions in past years. The results will help you decide how hot, cold, wet, or windy it might be!

Date:

Astronomy

Nov. 06, 2012 Rise Set
Actual Time 6:51 AM CST 4:46 PM CST
Civil Twilight 6:20 AM CST 5:17 PM CST
Nautical Twilight 5:45 AM CST 5:52 PM CST
Astronomical Twilight 5:11 AM CST 6:27 PM CST
Moon 11:29 PM CST (11/6) 12:41 PM CST (11/6)
Length of Visible Light 10h 57m
Length of Day
9h 55m
Waning Gibbous, 53% of the Moon is Illuminated
Nov 6
Waning Gibbous
Nov 6
Last Quarter
Nov 13
New
Nov 20
First Quarter
Nov 28
Full

Hourly Weather History & Observations

Time (CST) Temp. Windchill Dew Point Humidity Pressure Visibility Wind Dir Wind Speed Gust Speed Precip Events Conditions
12:56 AM 39.0 °F 32.3 °F 27.0 °F 62% 29.98 in 10.0 mi South 10.4 mph - N/A   Overcast
1:56 AM 39.0 °F 31.8 °F 28.0 °F 65% 29.96 in 10.0 mi South 11.5 mph - N/A   Overcast
2:56 AM 39.0 °F 31.8 °F 28.0 °F 65% 29.94 in 10.0 mi South 11.5 mph - N/A   Overcast
3:56 AM 37.9 °F 30.5 °F 30.0 °F 73% 29.90 in 10.0 mi South 11.5 mph - 0.00 in   Overcast
4:16 AM 37.4 °F 30.3 °F 30.2 °F 75% 29.87 in 8.0 mi South 10.4 mph - 0.00 in Rain Light Rain
4:56 AM 36.0 °F 27.5 °F 32.0 °F 86% 29.88 in 5.0 mi South 12.7 mph - 0.03 in Rain Light Rain
5:30 AM 35.6 °F 28.6 °F 32.0 °F 87% 29.84 in 3.0 mi South 9.2 mph - 0.03 in Snow Light Snow
5:33 AM 33.8 °F 25.8 °F 32.0 °F 93% 29.84 in 2.5 mi South 10.4 mph - 0.04 in Snow Light Snow
5:46 AM 33.8 °F 25.8 °F 32.0 °F 93% 29.83 in 1.8 mi SSE 10.4 mph - 0.05 in Snow Light Snow
5:56 AM 33.1 °F 25.5 °F 32.0 °F 96% 29.85 in 1.5 mi SSE 9.2 mph - 0.06 in Snow Light Snow
6:56 AM 33.1 °F 26.1 °F 32.0 °F 96% 29.84 in 1.2 mi South 8.1 mph - 0.05 in Snow Light Snow
7:31 AM 33.8 °F 26.4 °F 32.0 °F 93% 29.81 in 0.8 mi South 9.2 mph - 0.01 in Snow Light Snow
7:45 AM 33.8 °F 25.8 °F 32.0 °F 93% 29.80 in 1.0 mi South 10.4 mph - 0.02 in Snow Light Snow
7:56 AM 33.1 °F 24.9 °F 32.0 °F 96% 29.83 in 1.0 mi South 10.4 mph - 0.02 in Snow Light Snow
8:39 AM 33.8 °F 24.8 °F 32.0 °F 93% 29.79 in 2.0 mi South 12.7 mph - 0.01 in   Overcast
9:44 AM 33.8 °F 25.3 °F 33.8 °F 100% 29.78 in 1.5 mi South 11.5 mph - 0.02 in Snow Light Snow
9:56 AM 34.0 °F 25.0 °F 33.1 °F 96% 29.80 in 1.5 mi SSE 12.7 mph - 0.02 in   Overcast
10:37 AM 35.6 °F 27.1 °F 33.8 °F 93% 29.77 in 2.5 mi South 12.7 mph - 0.00 in Rain Light Rain
10:56 AM 36.0 °F 28.5 °F 34.0 °F 93% 29.79 in 3.0 mi South 10.4 mph - 0.00 in   Overcast
11:31 AM 35.6 °F 28.6 °F 33.8 °F 93% 29.76 in 2.5 mi South 9.2 mph - 0.00 in   Overcast
11:54 AM 35.6 °F 29.2 °F 35.6 °F 100% 29.75 in 1.5 mi South 8.1 mph - 0.00 in   Overcast
11:56 AM 36.0 °F 29.6 °F 35.1 °F 97% 29.78 in 1.5 mi South 8.1 mph - 0.00 in   Overcast
12:14 PM 35.6 °F 29.2 °F 35.6 °F 100% 29.75 in 2.5 mi South 8.1 mph - 0.01 in Rain Light Rain
12:21 PM 37.4 °F 31.4 °F 35.6 °F 93% 29.75 in 3.0 mi South 8.1 mph - 0.01 in   Overcast
12:41 PM 37.4 °F 32.1 °F 35.6 °F 93% 29.75 in 2.0 mi South 6.9 mph - 0.01 in   Overcast
12:49 PM 37.4 °F 31.4 °F 35.6 °F 93% 29.75 in 1.8 mi South 8.1 mph - 0.01 in   Overcast
12:56 PM 37.0 °F 31.0 °F 36.0 °F 96% 29.78 in 1.8 mi South 8.1 mph - 0.01 in   Overcast
1:14 PM 37.4 °F 33.8 °F 37.4 °F 100% 29.75 in 2.0 mi South 4.6 mph - N/A   Overcast
1:56 PM 39.0 °F - 37.0 °F 93% 29.78 in 3.0 mi Calm Calm - 0.01 in   Overcast
2:06 PM 39.2 °F - 37.4 °F 93% 29.76 in 2.5 mi Calm Calm - 0.00 in Rain Light Rain
2:08 PM 39.2 °F - 37.4 °F 93% 29.76 in 3.0 mi Calm Calm - 0.00 in Rain Light Rain
2:22 PM 39.2 °F - 37.4 °F 93% 29.76 in 8.0 mi Calm Calm - 0.00 in   Overcast
2:29 PM 39.2 °F - 37.4 °F 93% 29.76 in 8.0 mi Calm Calm - 0.00 in   Overcast
2:56 PM 41.0 °F 38.0 °F 37.9 °F 89% 29.80 in 10.0 mi West 4.6 mph - 0.00 in   Overcast
4:56 PM 39.9 °F 37.8 °F 36.0 °F 86% 29.83 in 10.0 mi WNW 3.5 mph - N/A   Overcast
5:56 PM 39.0 °F - 36.0 °F 89% 29.84 in 10.0 mi Calm Calm - N/A   Overcast
6:56 PM 37.0 °F - 35.1 °F 93% 29.86 in 10.0 mi Calm Calm - N/A   Overcast
7:37 PM 37.4 °F - 35.6 °F 93% 29.84 in 10.0 mi Calm Calm - N/A   Overcast
7:52 PM 37.4 °F - 35.6 °F 93% 29.85 in 10.0 mi Calm Calm - N/A   Overcast
7:56 PM 37.0 °F - 35.1 °F 93% 29.88 in 10.0 mi Calm Calm - N/A   Overcast
8:56 PM 37.0 °F - 35.1 °F 93% 29.89 in 10.0 mi Calm Calm - N/A   Overcast
9:24 PM 37.4 °F 34.9 °F 35.6 °F 93% 29.87 in 10.0 mi NNW 3.5 mph - N/A   Overcast
9:56 PM 37.9 °F 34.4 °F 35.1 °F 89% 29.91 in 10.0 mi NW 4.6 mph - N/A   Overcast
10:21 PM 37.4 °F 33.8 °F 35.6 °F 93% 29.88 in 10.0 mi NW 4.6 mph - N/A   Overcast
10:56 PM 37.9 °F 35.5 °F 35.1 °F 89% 29.93 in 10.0 mi NNW 3.5 mph - N/A   Overcast
11:07 PM 37.4 °F 34.9 °F 35.6 °F 93% 29.90 in 10.0 mi North 3.5 mph - N/A   Overcast
11:31 PM 37.4 °F 34.9 °F 35.6 °F 93% 29.91 in 10.0 mi NNW 3.5 mph - N/A   Overcast
11:56 PM 37.9 °F 35.5 °F 35.1 °F 89% 29.94 in 10.0 mi NNW 3.5 mph - N/A   Overcast